CW2654 Weather Reports


time (UTC)temp
F
wind
direction
speed
knots
gust
knots
rain 1hr
in
rain 24hr
in
rain mn
in
humidity
%
barometer
mb
20260506103055 54 0 0.0 0.0 0.00 0.00 0.00 95 1018.0
20260506101554 54 0 0.0 1.7 0.00 0.00 0.00 95 1017.9
20260506100056 54 0 0.0 0.9 0.00 0.00 0.00 95 1017.9
20260506094553 54 0 0.0 0.9 0.00 0.00 0.00 95 1018.1
20260506093055 54 0 0.0 0.0 0.00 0.00 0.00 95 1017.9
20260506091550 54 0 0.0 0.0 0.00 0.00 0.00 95 1018.0
20260506090053 55 0 0.0 0.0 0.00 0.00 0.00 94 1017.9
20260506084553 55 0 0.0 0.9 0.00 0.00 0.00 94 1017.9
20260506083055 55 0 0.0 0.9 0.00 0.00 0.00 94 1017.9
20260506081552 55 0 0.0 0.9 0.00 0.00 0.00 94 1017.8
20260506073059 55 0 0.0 0.9 0.00 0.00 0.00 94 1017.6
20260506071554 55 0 0.0 0.9 0.00 0.00 0.00 94 1017.5
20260506070114 55 0 0.0 0.9 0.00 0.00 0.00 94 1017.4
20260506061551 55 0 0.0 1.7 0.00 0.00 0.00 93 1017.1
20260506050112 55 286 0.0 0.9 0.00 0.00 0.00 93 1016.9
20260506044601 56 0 0.0 0.0 0.00 0.00 0.00 93 1016.8
20260506043052 56 0 0.0 0.0 0.00 0.00 0.00 92 1016.8
20260506041555 56 0 0.0 0.9 0.00 0.00 0.00 92 1016.6
20260506040100 57 0 0.0 0.0 0.00 0.00 0.00 91 1016.4
20260506034551 57 0 0.0 0.0 0.00 0.00 0.00 90 1016.3
20260506033049 57 0 0.0 0.0 0.00 0.00 0.00 90 1016.2
20260506031559 58 0 0.0 0.0 0.00 0.00 0.00 88 1015.9
20260506030111 58 0 0.0 0.0 0.00 0.00 0.00 87 1015.7
20260506024552 58 0 0.0 0.0 0.00 0.00 0.00 86 1015.8
20260506023056 58 0 0.0 0.0 0.00 0.00 0.00 86 1015.5
20260506021548 58 0 0.0 0.0 0.00 0.00 0.00 85 1015.6
20260506020051 58 0 0.0 1.7 0.00 0.00 0.00 84 1015.7
20260506014555 58 0 0.0 0.9 0.00 0.00 0.00 83 1015.6
20260506013051 59 0 0.0 1.7 0.00 0.00 0.00 84 1015.5
20260506011558 59 0 0.0 1.7 0.00 0.00 0.00 83 1015.5
20260506010058 59 0 0.0 0.9 0.00 0.00 0.00 83 1015.4
20260506004625 59 0 0.0 2.6 0.00 0.00 0.00 83 1015.5
20260506003051 59 0 0.0 2.6 0.00 0.00 0.00 84 1015.6
20260506001556 59 0 0.0 1.7 0.00 0.00 0.00 83 1015.6
20260506000054 59 0 0.0 1.7 0.00 0.00 0.00 83 1015.9
20260505234612 60 277 0.0 3.5 0.00 0.00 0.00 82 1016.0
20260505233048 60 0 0.0 1.7 0.00 0.00 0.00 80 1016.0
20260505231552 61 0 0.9 6.1 0.00 0.00 0.00 79 1016.0
20260505230052 61 261 0.9 4.3 0.00 0.00 0.00 82 1016.0
20260505224552 61 189 0.0 3.5 0.00 0.00 0.00 80 1016.2
20260505223102 61 281 0.9 2.6 0.00 0.00 0.00 80 1016.1
20260505221608 60 0 0.0 0.9 0.00 0.00 0.00 81 1016.3
20260505220124 60 0 0.0 1.7 0.00 0.00 0.00 82 1016.3
20260505214614 60 332 0.0 3.5 0.00 0.00 0.00 81 1016.2
20260505213055 60 299 0.0 6.1 0.00 0.00 0.00 81 1016.2
20260505211612 61 259 0.0 4.3 0.00 0.00 0.00 79 1016.4
20260505210054 60 0 0.0 2.6 0.00 0.00 0.00 81 1016.5
20260505204550 60 245 0.9 4.3 0.00 0.00 0.00 80 1016.6
20260505203052 59 0 0.0 0.9 0.00 0.00 0.00 84 1016.6
20260505201602 58 0 0.0 2.6 0.00 0.00 0.00 84 1016.8
20260505194604 57 0 0.0 1.7 0.00 0.00 0.00 87 1016.8
20260505193056 57 0 0.0 3.5 0.00 0.00 0.00 86 1016.8
20260505191555 56 0 0.0 1.7 0.00 0.00 0.00 86 1017.0
20260505190100 56 254 0.0 3.5 0.00 0.00 0.00 88 1016.8
20260505184556 56 240 0.0 1.7 0.00 0.00 0.00 87 1016.9
20260505183102 55 0 0.0 1.7 0.00 0.00 0.00 88 1016.9
20260505181556 55 0 0.0 0.9 0.00 0.00 0.00 89 1016.8
20260505180053 54 0 0.0 0.9 0.00 0.00 0.00 91 1016.8
20260505174553 54 0 0.0 2.6 0.00 0.00 0.00 91 1016.7
20260505173053 54 0 0.0 0.9 0.00 0.00 0.00 92 1016.7
20260505171550 53 0 0.0 2.6 0.00 0.00 0.00 93 1016.5
20260505170056 53 0 0.0 1.7 0.00 0.00 0.00 92 1016.6
20260505164609 53 0 0.0 0.9 0.00 0.00 0.00 94 1016.4
20260505163104 52 0 0.0 1.7 0.00 0.00 0.00 94 1016.4
20260505161601 52 0 0.0 3.5 0.00 0.00 0.00 95 1016.5
20260505160109 52 0 0.0 3.5 0.00 0.00 0.00 95 1016.3
20260505153110 52 0 0.0 0.9 0.00 0.00 0.00 96 1016.2
20260505151556 52 0 0.0 2.6 0.00 0.00 0.00 96 1016.0
20260505130111 51 0 0.0 2.6 0.00 0.00 0.00 94 1015.3
20260505124610 52 0 0.9 6.1 0.00 0.00 0.00 93 1015.2
20260505123108 52 0 0.0 3.5 0.00 0.00 0.00 92 1015.3
20260505121555 52 208 0.9 3.5 0.00 0.00 0.00 91 1015.2
20260505120101 52 0 0.0 4.3 0.00 0.00 0.00 91 1015.3
20260505114555 53 0 0.0 0.9 0.00 0.00 0.00 91 1015.1
20260505113056 53 0 0.0 1.7 0.00 0.00 0.00 90 1015.1
20260505111553 53 0 0.0 2.6 0.00 0.00 0.00 90 1014.9
20260505110107 53 0 0.0 1.7 0.00 0.00 0.00 90 1014.7